• Join FlightAware (Why Join?)
  • Login
  • US Flag 
09:10PM EDT


 

Airport Tracker/Info


-or-


 

Live Flight TrackerFlight Track Log ✈ N722NG ✈ 12-Sep-2013 ✈ KBFM - KNEW

Flight Track Log - Related Links

Times and Time Zones

All times are in EDT time to prevent confusion due to time zone crossing. See the N722NG flight status page for this flight to view local times or setup timezone preferences in your user account.

Time Position Orientation Groundspeed Altitude Reporting Facility
EDT Latitude Longitude Course Direction KTS MPH feet Rate Location/Type
07:56PM 30.5452 -88.3491 250° West  Level Estimated
07:56PM 30.4680 -88.2670 261° West 180 207 6,000  Level FlightAware
07:57PM 30.4660 -88.2750 254° West 178 205 6,000  Level FlightAware
07:57PM 30.4640 -88.2820 252° West 177 204 6,000  Level FlightAware
07:57PM 30.4640 -88.2830 270° West 176 203 6,000  Level FlightAware
07:57PM 30.4600 -88.3000 255° West 174 200 6,000  Level FlightAware
07:57PM 30.4580 -88.3080 254° West 174 200 6,000  Level FlightAware
07:57PM 30.4560 -88.3150 252° West 174 200 6,000  Level FlightAware
07:57PM 30.4560 -88.3170 270° West 174 200 6,000  Level FlightAware
07:58PM 30.4520 -88.3330 254° West 174 200 6,000  Level FlightAware
07:58PM 30.4510 -88.3360 249° West 175 201 6,000  Level FlightAware
07:58PM 30.4490 -88.3440 254° West 174 200 6,000  Level FlightAware
07:58PM 30.4480 -88.3490 257° West 173 199 6,000  Level FlightAware
07:58PM 30.4450 -88.3610 254° West 175 201 6,000  Level FlightAware
07:58PM 30.4420 -88.3760 257° West 175 201 6,000  Level FlightAware
07:59PM 30.4410 -88.3810 257° West 175 201 6,000  Level FlightAware
07:59PM 30.4360 -88.4000 253° West 175 201 6,000  Level FlightAware
07:59PM 30.4350 -88.4080 262° West 174 200 6,000  Level FlightAware
07:59PM 30.4340 -88.4090 221° Southwest 175 201 6,000  Level FlightAware
07:59PM 30.4320 -88.4200 258° West 174 200 6,000  Level FlightAware
07:59PM 30.4300 -88.4260 249° West 174 200 6,000  Level FlightAware
08:00PM 30.4280 -88.4330 252° West 175 201 6,000  Level FlightAware
08:00PM 30.4280 -88.4370 270° West 175 201 6,000  Level FlightAware
08:00PM 30.4260 -88.4440 252° West 176 203 6,000  Level FlightAware
08:01PM 30.4108 -88.5044 252° West 178 205 6,000  Level Houston Center
08:02PM 30.3983 -88.5583 255° West 175 201 6,000  Level Houston Center
08:03PM 30.3828 -88.6239 255° West 175 201 6,000  Level Houston Center
08:04PM 30.3697 -88.6781 254° West 175 201 6,000  Level Houston Center
08:05PM 30.3569 -88.7317 255° West 173 199 6,000  Level Houston Center
08:06PM 30.3442 -88.7861 255° West 175 201 6,000  Level Houston Center
08:07PM 30.3303 -88.8406 254° West 176 203 6,000  Level Houston Center
08:08PM 30.3183 -88.8953 256° West 176 203 6,000  Level Houston Center
08:09PM 30.3036 -88.9589 255° West 176 203 6,000  Level Houston Center
08:10PM 30.2894 -89.0142 253° West 177 204 6,000  Level Houston Center
08:11PM 30.2767 -89.0694 255° West 178 205 6,000  Level Houston Center
08:12PM 30.2633 -89.1233 254° West 176 203 6,000  Level Houston Center
08:13PM 30.2508 -89.1778 255° West 175 201 6,000  Level Houston Center
08:14PM 30.2372 -89.2331 254° West 176 203 6,000  Level Houston Center
08:15PM 30.2242 -89.2881 255° West 177 204 6,000 -300 Level Houston Center
08:21PM 30.1520 -89.5830 255° West 203 234 4,400 -300 Descending FlightAware
08:21PM 30.1460 -89.6080 254° West 203 234 4,400 -1,200 Level FlightAware
08:22PM 30.1322 -89.6586 254° West 206 237 3,200 -1,380 Descending Houston Center
08:23PM 30.1219 -89.7094 257° West 201 231 2,400 -1,020 Descending Houston Center
08:23PM 30.1200 -89.7264 262° West 200 230 2,100 -300 Descending Houston Center
08:28PM 30.0730 -90.0200 262° West 100 115 700 -240 Descending FlightAware
08:29PM 30.0710 -90.0330 260° West 100 115 700  Level FlightAware